Regional Weather Roundup
Issued by NWS

Home | Current Version | Previous Version | Graphics & Text | Print | Product List | Glossary On
Versions: 1 2 3 4 5 6 7 8 9 10 11 12 13 14 15 16 17 18 19 20 21 22 23 24 25 26 27 28 29 30 31 32 33 34 35 36 37 38 39 40 41 42 43 44 45 46 47 48 49 50
339
ASUS43 KOAX 021602
RWRNE

WEATHER ROUNDUP FOR NEBRASKA
NATIONAL WEATHER SERVICE OMAHA NE
1100 AM CDT MON MAY 02 2016

NOTES: SATELLITE DATA IS BEING USED TO AUGMENT CLOUD COVER ABOVE
       12000 FEET.
       "FAIR" INDICATES FEW OR NO CLOUDS BELOW 12,000 FEET WITH NO
       SIGNIFICANT WEATHER AND/OR OBSTRUCTIONS TO VISIBILITY.

  * THESE STATIONS DO NOT REPORT WEATHER SUCH AS RAIN...SNOW OR FOG.

NEZ001>004-019>022-054>056-021700-
NEBRASKA PANHANDLE

CITY           SKY/WX    TMP DP  RH WIND       PRES   REMARKS
SCOTTSBLUFF    SUNNY     49  33  54 W12       30.20F
ALLIANCE       SUNNY     50  34  54 W9        30.17F
CHADRON        SUNNY     54  35  48 W14       30.16F
KIMBALL        SUNNY     45  32  61 W7        30.22S
SIDNEY         SUNNY     45  33  63 W9        30.21S
$$

NEZ057>060-069>072-079>082-021700-
SOUTHWEST NEBRASKA

CITY           SKY/WX    TMP DP  RH WIND       PRES   REMARKS
NORTH PLATTE   SUNNY     52  37  56 NW7       30.18F
IMPERIAL       SUNNY     51  36  56 NW8       30.20F
LEXINGTON      SUNNY     53  36  52 NW5       30.18F
MCCOOK         SUNNY     53  38  56 CALM      30.19F
$$

NEZ005>010-023>029-035>040-094-021700-
NORTH CENTRAL NEBRASKA

CITY           SKY/WX    TMP DP  RH WIND       PRES   REMARKS
VALENTINE      PTSUNNY   54  34  46 W8        30.13F
AINSWORTH      SUNNY     55  34  45 NW6       30.14F
BROKEN BOW     SUNNY     53  32  44 W5        30.16F
ORD            SUNNY     55  40  56 NW7       30.15F
$$

NEZ041-046>049-061>064-073>077-083>087-021700-
SOUTH CENTRAL NEBRASKA

CITY           SKY/WX    TMP DP  RH WIND       PRES   REMARKS
GRAND ISLAND   SUNNY     55  36  48 NW10      30.17F
AURORA         SUNNY     55  40  57 NW9       30.16S
HASTINGS       SUNNY     53  34  48 NW8       30.16F
KEARNEY *      MOSUNNY   52  32  46 NW6       30.18F
YORK           SUNNY     55  41  58 N8        30.15F
$$

NEZ011>018-030>034-042>045-021700-
NORTHEAST NEBRASKA

CITY           SKY/WX    TMP DP  RH WIND       PRES   REMARKS
NORFOLK        SUNNY     56  39  53 CALM      30.14F
ALBION         SUNNY     56  36  46 NW5       30.15F
BLAIR          SUNNY     57  40  53 N9        30.13S
COLUMBUS *     SUNNY     55  39  54 N6        30.15F
FREMONT        SUNNY     58  42  55 NW5       30.14F
TEKAMAH        SUNNY     57  44  62 N9        30.13F
$$

NEZ050>053-065>068-078-088>093-021700-
SOUTHEAST NEBRASKA

CITY           SKY/WX    TMP DP  RH WIND       PRES   REMARKS
LINCOLN        SUNNY     60  39  45 NE8       30.15F
OMAHA EPPLEY   MOSUNNY   57  44  62 NW7       30.13F
BEATRICE       SUNNY     57  40  53 N12       30.14F
FALLS CITY     CLOUDY    55  46  71 N8        30.13R
$$

NEZ044-045-051>053-067-021700-
OMAHA AREA

CITY           SKY/WX    TMP DP  RH WIND       PRES   REMARKS
OMAHA EPPLEY   MOSUNNY   57  44  62 NW7       30.13F
BLAIR          SUNNY     57  40  53 N9        30.13S
FREMONT        SUNNY     58  42  55 NW5       30.14F
OFFUTT AFB     SUNNY     56  44  62 N5        30.13F
$$




USA.gov is the U.S. government's official web portal to all federal, state and local government web resources and services.